| time (UTC) | temp C | wind direction | speed KPH | gust KPH | rain 1hr cm | rain 24hr cm | rain mn cm | humidity % | barometer mb |
| 20260506182640 | 21 | 271 | 6.4 | 11.3 | 0.03 | 0.25 | 0.03 | 71 | 1008.2 |
| 20260506182630 | 21 | 203 | 6.4 | 6.4 | 0.03 | 0.25 | 0.03 | 72 | 1008.2 |
| 20260506182622 | 21 | 180 | 6.4 | 8.0 | 0.03 | 0.25 | 0.03 | 73 | 1008.3 |
| 20260506182608 | 21 | 262 | 12.9 | 8.0 | 0.03 | 0.25 | 0.03 | 71 | 1008.1 |
| 20260506182109 | 21 | 194 | 8.0 | 6.4 | 0.03 | 0.25 | 0.03 | 71 | 1008.2 |
| 20260506181610 | 21 | 248 | 8.0 | 4.8 | 0.03 | 0.25 | 0.03 | 71 | 1008.1 |
| 20260506181106 | 21 | 314 | 4.8 | 8.0 | 0.03 | 0.25 | 0.03 | 71 | 1008.2 |
| 20260506180607 | 21 | 271 | 6.4 | 11.3 | 0.03 | 0.25 | 0.03 | 71 | 1008.2 |
| 20260506180108 | 21 | 203 | 6.4 | 6.4 | 0.03 | 0.25 | 0.03 | 72 | 1008.2 |
| 20260506175604 | 21 | 180 | 6.4 | 8.0 | 0.03 | 0.25 | 0.03 | 73 | 1008.3 |
| 20260506175436 | 21 | 205 | 4.8 | 1.6 | 0.00 | 0.25 | 0.03 | 76 | 1008.8 |
| 20260506175424 | 21 | 270 | 1.6 | 3.2 | 0.00 | 0.25 | 0.03 | 77 | 1008.7 |
| 20260506175104 | 21 | 305 | 4.8 | 3.2 | 0.03 | 0.25 | 0.03 | 74 | 1008.5 |
| 20260506174605 | 21 | 152 | 4.8 | 4.8 | 0.00 | 0.25 | 0.03 | 75 | 1008.6 |
| 20260506174103 | 21 | 242 | 3.2 | 1.6 | 0.00 | 0.25 | 0.03 | 75 | 1008.7 |
| 20260506173604 | 21 | 188 | 4.8 | 1.6 | 0.00 | 0.25 | 0.03 | 76 | 1008.7 |
| 20260506173104 | 21 | 205 | 4.8 | 1.6 | 0.00 | 0.25 | 0.03 | 76 | 1008.8 |
| 20260506172601 | 21 | 270 | 1.6 | 3.2 | 0.00 | 0.25 | 0.03 | 77 | 1008.7 |
| 20260506172238 | 21 | 136 | 0.0 | 0.0 | 0.00 | 0.25 | 0.03 | 72 | 1009.0 |
| 20260506172228 | 21 | 221 | 1.6 | 0.0 | 0.00 | 0.25 | 0.03 | 72 | 1009.1 |
| 20260506172102 | 21 | 179 | 4.8 | 1.6 | 0.00 | 0.25 | 0.03 | 77 | 1008.7 |
| 20260506171603 | 21 | 177 | 3.2 | 0.0 | 0.00 | 0.25 | 0.03 | 77 | 1008.9 |
| 20260506171059 | 21 | 156 | 3.2 | 1.6 | 0.00 | 0.25 | 0.03 | 74 | 1008.9 |
| 20260506170600 | 21 | 176 | 3.2 | 0.0 | 0.00 | 0.25 | 0.03 | 73 | 1009.0 |
| 20260506165558 | 21 | 221 | 1.6 | 0.0 | 0.00 | 0.25 | 0.03 | 72 | 1009.1 |
| 20260506165059 | 21 | 142 | 3.2 | 3.2 | 0.00 | 0.25 | 0.00 | 71 | 1009.4 |
| 20260506165030 | 21 | 188 | 0.0 | 1.6 | 0.00 | 0.25 | 0.00 | 74 | 1010.0 |
| 20260506164056 | 21 | 218 | 4.8 | 6.4 | 0.00 | 0.25 | 0.00 | 74 | 1009.6 |
| 20260506163557 | 21 | 285 | 1.6 | 3.2 | 0.00 | 0.25 | 0.00 | 73 | 1010.0 |
| 20260506163058 | 21 | 195 | 3.2 | 3.2 | 0.00 | 0.25 | 0.00 | 74 | 1009.9 |
| 20260506162651 | 21 | 249 | 3.2 | 1.6 | 0.00 | 0.25 | 0.00 | 73 | 1010.0 |
| 20260506162555 | 21 | 188 | 0.0 | 1.6 | 0.00 | 0.25 | 0.00 | 74 | 1010.0 |
| 20260506162056 | 21 | 249 | 3.2 | 1.6 | 0.00 | 0.25 | 0.00 | 73 | 1010.0 |
| 20260506161837 | 21 | 200 | 3.2 | 1.6 | 0.00 | 0.25 | 0.00 | 70 | 1010.1 |
| 20260506161830 | 21 | 235 | 6.4 | 8.0 | 0.00 | 0.25 | 0.00 | 70 | 1010.0 |
| 20260506161825 | 21 | 159 | 4.8 | 1.6 | 0.00 | 0.25 | 0.00 | 69 | 1010.0 |
| 20260506161557 | 21 | 219 | 4.8 | 3.2 | 0.00 | 0.25 | 0.00 | 73 | 1010.0 |
| 20260506161053 | 21 | 210 | 6.4 | 4.8 | 0.00 | 0.25 | 0.00 | 72 | 1010.0 |
| 20260506160554 | 21 | 249 | 1.6 | 6.4 | 0.00 | 0.25 | 0.00 | 72 | 1010.0 |
| 20260506160055 | 21 | 200 | 3.2 | 1.6 | 0.00 | 0.25 | 0.00 | 70 | 1010.1 |
| 20260506155552 | 21 | 235 | 6.4 | 8.0 | 0.00 | 0.25 | 0.00 | 70 | 1010.0 |
| 20260506155052 | 21 | 159 | 4.8 | 1.6 | 0.00 | 0.25 | 0.00 | 69 | 1010.0 |
| 20260506154633 | 22 | 235 | 6.4 | 3.2 | 0.00 | 0.25 | 0.00 | 68 | 1010.1 |
| 20260506154553 | 22 | 132 | 3.2 | 0.0 | 0.00 | 0.25 | 0.00 | 68 | 1010.1 |
| 20260506154050 | 22 | 203 | 4.8 | 3.2 | 0.00 | 0.25 | 0.00 | 68 | 1010.1 |
| 20260506153551 | 22 | 70 | 1.6 | 1.6 | 0.00 | 0.25 | 0.00 | 67 | 1010.0 |
| 20260506153051 | 22 | 177 | 3.2 | 3.2 | 0.00 | 0.25 | 0.00 | 67 | 1009.9 |
| 20260506152932 | 21 | 203 | 4.8 | 3.2 | 0.00 | 0.25 | 0.00 | 68 | 1010.0 |
| 20260506152548 | 22 | 235 | 6.4 | 3.2 | 0.00 | 0.25 | 0.00 | 68 | 1010.1 |
| 20260506152414 | 21 | 160 | 6.4 | 1.6 | 0.00 | 0.25 | 0.00 | 68 | 1010.1 |
| 20260506152049 | 21 | 203 | 4.8 | 3.2 | 0.00 | 0.25 | 0.00 | 68 | 1010.0 |
| 20260506151856 | 21 | 233 | 6.4 | 3.2 | 0.00 | 0.25 | 0.00 | 67 | 1010.2 |
| 20260506151550 | 21 | 160 | 6.4 | 1.6 | 0.00 | 0.25 | 0.00 | 68 | 1010.1 |
| 20260506151436 | 22 | 256 | 4.8 | 3.2 | 0.00 | 0.25 | 0.00 | 66 | 1010.1 |
| 20260506151420 | 22 | 256 | 4.8 | 6.4 | 0.00 | 0.25 | 0.00 | 66 | 1010.1 |
| 20260506151140 | 21 | 233 | 6.4 | 3.2 | 0.00 | 0.25 | 0.00 | 67 | 1010.2 |
| 20260506151047 | 21 | 233 | 6.4 | 3.2 | 0.00 | 0.25 | 0.00 | 67 | 1010.2 |
| 20260506150633 | 22 | 135 | 8.0 | 3.2 | 0.00 | 0.25 | 0.00 | 66 | 1010.2 |
| 20260506150548 | 22 | 65 | 3.2 | 1.6 | 0.00 | 0.25 | 0.00 | 67 | 1010.2 |
| 20260506150208 | 22 | 256 | 4.8 | 3.2 | 0.00 | 0.25 | 0.00 | 66 | 1010.1 |
| 20260506150049 | 22 | 135 | 8.0 | 3.2 | 0.00 | 0.25 | 0.00 | 66 | 1010.2 |
| 20260506145624 | 22 | 218 | 6.4 | 3.2 | 0.00 | 0.25 | 0.00 | 66 | 1010.1 |
| 20260506145545 | 22 | 256 | 4.8 | 3.2 | 0.00 | 0.25 | 0.00 | 66 | 1010.1 |
| 20260506145258 | 22 | 256 | 4.8 | 6.4 | 0.00 | 0.25 | 0.00 | 66 | 1010.1 |
| 20260506145046 | 22 | 218 | 6.4 | 3.2 | 0.00 | 0.25 | 0.00 | 66 | 1010.1 |
| 20260506144547 | 22 | 256 | 4.8 | 6.4 | 0.00 | 0.25 | 0.00 | 66 | 1010.1 |
| 20260506144259 | 22 | 177 | 4.8 | 4.8 | 0.00 | 0.25 | 0.00 | 65 | 1010.1 |
| 20260506144232 | 22 | 225 | 8.0 | 6.4 | 0.00 | 0.25 | 0.00 | 65 | 1010.1 |
| 20260506144224 | 22 | 177 | 4.8 | 4.8 | 0.00 | 0.25 | 0.00 | 65 | 1010.1 |
| 20260506144217 | 22 | 269 | 9.7 | 6.4 | 0.00 | 0.25 | 0.00 | 64 | 1010.0 |
| 20260506144044 | 22 | 225 | 9.7 | 4.8 | 0.00 | 0.25 | 0.00 | 65 | 1010.1 |
| 20260506143545 | 22 | 211 | 6.4 | 9.7 | 0.00 | 0.25 | 0.00 | 66 | 1010.1 |
| 20260506143046 | 22 | 179 | 4.8 | 4.8 | 0.00 | 0.25 | 0.00 | 66 | 1010.2 |
| 20260506142543 | 22 | 210 | 3.2 | 4.8 | 0.00 | 0.25 | 0.00 | 65 | 1010.2 |
| 20260506142044 | 22 | 225 | 8.0 | 6.4 | 0.00 | 0.25 | 0.00 | 65 | 1010.1 |
| 20260506141644 | 22 | 177 | 4.8 | 4.8 | 0.00 | 0.25 | 0.00 | 65 | 1010.1 |
| 20260506141545 | 22 | 177 | 4.8 | 4.8 | 0.00 | 0.25 | 0.00 | 65 | 1010.1 |
| 20260506141042 | 22 | 269 | 9.7 | 6.4 | 0.00 | 0.25 | 0.00 | 64 | 1010.0 |
| 20260506141026 | 22 | 248 | 4.8 | 4.8 | 0.00 | 0.25 | 0.00 | 65 | 1010.3 |
| 20260506141018 | 22 | 214 | 4.8 | 0.0 | 0.00 | 0.25 | 0.00 | 65 | 1010.3 |
| 20260506140524 | 22 | 233 | 4.8 | 3.2 | 0.00 | 0.25 | 0.00 | 64 | 1010.1 |
| 20260506140025 | 23 | 233 | 8.0 | 6.4 | 0.00 | 0.25 | 0.00 | 64 | 1010.1 |
| 20260506135521 | 23 | 110 | 6.4 | 0.0 | 0.00 | 0.25 | 0.00 | 64 | 1010.1 |
| 20260506135022 | 23 | 221 | 4.8 | 6.4 | 0.00 | 0.25 | 0.00 | 64 | 1010.1 |
| 20260506134523 | 22 | 248 | 4.8 | 4.8 | 0.00 | 0.25 | 0.00 | 65 | 1010.3 |
| 20260506134019 | 22 | 214 | 4.8 | 0.0 | 0.00 | 0.25 | 0.00 | 65 | 1010.3 |
| 20260506133520 | 22 | 198 | 8.0 | 1.6 | 0.00 | 0.25 | 0.00 | 65 | 1010.3 |
| 20260506133022 | 22 | 288 | 6.4 | 6.4 | 0.00 | 0.25 | 0.00 | 66 | 1010.4 |
| 20260506132518 | 22 | 238 | 6.4 | 6.4 | 0.00 | 0.25 | 0.00 | 66 | 1010.5 |
| 20260506132019 | 22 | 188 | 8.0 | 3.2 | 0.00 | 0.25 | 0.00 | 67 | 1010.6 |
| 20260506131520 | 21 | 210 | 8.0 | 3.2 | 0.00 | 0.25 | 0.00 | 69 | 1010.7 |
| 20260506131017 | 21 | 184 | 9.7 | 4.8 | 0.00 | 0.25 | 0.00 | 69 | 1010.5 |
| 20260506130615 | 20 | 203 | 4.8 | 4.8 | 0.00 | 0.25 | 0.00 | 75 | 1010.5 |
| 20260506130556 | 21 | 238 | 8.0 | 3.2 | 0.00 | 0.25 | 0.00 | 70 | 1010.5 |
| 20260506130518 | 21 | 238 | 8.0 | 3.2 | 0.00 | 0.25 | 0.00 | 70 | 1010.5 |
| 20260506130019 | 20 | 222 | 8.0 | 8.0 | 0.00 | 0.25 | 0.00 | 72 | 1010.5 |
| 20260506125516 | 20 | 184 | 4.8 | 9.7 | 0.00 | 0.25 | 0.00 | 73 | 1010.6 |
| 20260506125322 | 20 | 193 | 4.8 | 11.3 | 0.00 | 0.25 | 0.00 | 74 | 1010.6 |
| 20260506125017 | 20 | 193 | 4.8 | 11.3 | 0.00 | 0.25 | 0.00 | 74 | 1010.6 |
| 20260506124518 | 20 | 238 | 6.4 | 9.7 | 0.00 | 0.25 | 0.00 | 75 | 1010.5 |
| 20260506124015 | 20 | 122 | 6.4 | 8.0 | 0.00 | 0.25 | 0.00 | 75 | 1010.5 |
| 20260506123516 | 20 | 203 | 4.8 | 4.8 | 0.00 | 0.25 | 0.00 | 75 | 1010.5 |
| 20260506123427 | 19 | 269 | 6.4 | 4.8 | 0.00 | 0.25 | 0.00 | 77 | 1010.7 |
| 20260506123419 | 19 | 207 | 4.8 | 6.4 | 0.00 | 0.25 | 0.00 | 76 | 1010.6 |
| 20260506123415 | 19 | 231 | 6.4 | 4.8 | 0.00 | 0.25 | 0.00 | 75 | 1010.5 |
| 20260506123017 | 20 | 194 | 8.0 | 8.0 | 0.00 | 0.25 | 0.00 | 75 | 1010.5 |
| 20260506122514 | 20 | 304 | 8.0 | 4.8 | 0.00 | 0.25 | 0.00 | 75 | 1010.5 |
| 20260506122014 | 19 | 211 | 8.0 | 4.8 | 0.00 | 0.25 | 0.00 | 76 | 1010.6 |
| 20260506121515 | 19 | 269 | 6.4 | 4.8 | 0.00 | 0.25 | 0.00 | 77 | 1010.7 |
| 20260506121012 | 19 | 207 | 4.8 | 6.4 | 0.00 | 0.25 | 0.00 | 76 | 1010.6 |
| 20260506120513 | 19 | 231 | 6.4 | 4.8 | 0.00 | 0.25 | 0.00 | 75 | 1010.5 |
| 20260506120227 | 20 | 225 | 6.4 | 6.4 | 0.00 | 0.25 | 0.00 | 75 | 1010.7 |
| 20260506120223 | 20 | 211 | 3.2 | 4.8 | 0.00 | 0.25 | 0.00 | 76 | 1010.8 |
| 20260506120014 | 20 | 276 | 9.7 | 6.4 | 0.00 | 0.25 | 0.00 | 75 | 1010.6 |
| 20260506115511 | 20 | 207 | 6.4 | 3.2 | 0.00 | 0.25 | 0.00 | 74 | 1010.6 |
| 20260506115012 | 20 | 229 | 6.4 | 4.8 | 0.00 | 0.25 | 0.00 | 74 | 1010.7 |
| 20260506114513 | 20 | 225 | 6.4 | 6.4 | 0.00 | 0.25 | 0.00 | 75 | 1010.7 |
| 20260506114010 | 20 | 211 | 3.2 | 4.8 | 0.00 | 0.25 | 0.00 | 76 | 1010.8 |
| 20260506113511 | 19 | 222 | 6.4 | 4.8 | 0.00 | 0.25 | 0.00 | 77 | 1010.8 |
| 20260506113029 | 19 | 160 | 6.4 | 8.0 | 0.00 | 0.25 | 0.00 | 78 | 1010.8 |
| 20260506113012 | 19 | 245 | 6.4 | 4.8 | 0.00 | 0.25 | 0.00 | 78 | 1010.8 |
| 20260506112548 | 19 | 207 | 6.4 | 6.4 | 0.00 | 0.25 | 0.00 | 78 | 1010.9 |
| 20260506112510 | 19 | 207 | 6.4 | 6.4 | 0.00 | 0.25 | 0.00 | 78 | 1010.9 |
| 20260506112011 | 19 | 269 | 8.0 | 11.3 | 0.00 | 0.25 | 0.00 | 78 | 1010.9 |
| 20260506111512 | 19 | 160 | 6.4 | 8.0 | 0.00 | 0.25 | 0.00 | 78 | 1010.8 |
| 20260506111008 | 19 | 242 | 4.8 | 4.8 | 0.00 | 0.25 | 0.00 | 80 | 1010.8 |
| 20260506110509 | 18 | 231 | 4.8 | 8.0 | 0.00 | 0.25 | 0.00 | 82 | 1010.8 |
| 20260506110010 | 18 | 181 | 4.8 | 4.8 | 0.00 | 0.25 | 0.00 | 84 | 1010.8 |
| 20260506105827 | 16 | 250 | 4.8 | 4.8 | 0.00 | 0.25 | 0.00 | 89 | 1010.8 |
| 20260506105818 | 16 | 158 | 6.4 | 1.6 | 0.00 | 0.25 | 0.00 | 89 | 1010.8 |
| 20260506105009 | 17 | 212 | 4.8 | 8.0 | 0.00 | 0.25 | 0.00 | 87 | 1010.7 |
| 20260506104510 | 17 | 259 | 4.8 | 6.4 | 0.00 | 0.25 | 0.00 | 88 | 1010.7 |
| 20260506104007 | 16 | 238 | 4.8 | 6.4 | 0.00 | 0.25 | 0.00 | 89 | 1010.8 |
| 20260506103508 | 16 | 250 | 4.8 | 4.8 | 0.00 | 0.25 | 0.00 | 89 | 1010.8 |
| 20260506103009 | 16 | 158 | 6.4 | 1.6 | 0.00 | 0.25 | 0.00 | 89 | 1010.8 |
| 20260506102619 | 16 | 240 | 6.4 | 6.4 | 0.00 | 0.25 | 0.00 | 89 | 1010.5 |
| 20260506102612 | 16 | 201 | 4.8 | 3.2 | 0.00 | 0.25 | 0.00 | 89 | 1010.6 |
| 20260506102008 | 16 | 188 | 4.8 | 8.0 | 0.00 | 0.25 | 0.00 | 89 | 1010.7 |
| 20260506101509 | 16 | 235 | 6.4 | 6.4 | 0.00 | 0.25 | 0.00 | 89 | 1010.6 |
| 20260506101006 | 16 | 231 | 4.8 | 6.4 | 0.00 | 0.25 | 0.00 | 89 | 1010.6 |
| 20260506100507 | 16 | 257 | 6.4 | 0.0 | 0.00 | 0.25 | 0.00 | 89 | 1010.6 |
| 20260506100008 | 16 | 240 | 6.4 | 6.4 | 0.00 | 0.25 | 0.00 | 89 | 1010.5 |
| 20260506095505 | 16 | 201 | 4.8 | 3.2 | 0.00 | 0.25 | 0.00 | 89 | 1010.6 |
| 20260506095412 | 16 | 203 | 4.8 | 6.4 | 0.00 | 0.25 | 0.00 | 89 | 1010.6 |
| 20260506095002 | 16 | 245 | 4.8 | 9.7 | 0.00 | 0.25 | 0.00 | 89 | 1010.5 |
| 20260506094504 | 16 | 221 | 6.4 | 9.7 | 0.00 | 0.25 | 0.00 | 89 | 1010.5 |
| 20260506094000 | 16 | 217 | 4.8 | 9.7 | 0.00 | 0.25 | 0.00 | 89 | 1010.6 |
| 20260506093501 | 16 | 252 | 3.2 | 6.4 | 0.00 | 0.25 | 0.00 | 89 | 1010.5 |
| 20260506093002 | 16 | 205 | 4.8 | 3.2 | 0.00 | 0.25 | 0.00 | 89 | 1010.6 |
| 20260506092459 | 16 | 203 | 4.8 | 6.4 | 0.00 | 0.25 | 0.00 | 89 | 1010.6 |
| 20260506092224 | 16 | 214 | 4.8 | 4.8 | 0.00 | 0.25 | 0.00 | 89 | 1010.8 |
| 20260506092213 | 16 | 208 | 6.4 | 3.2 | 0.00 | 0.25 | 0.00 | 88 | 1010.9 |
| 20260506092000 | 16 | 233 | 3.2 | 9.7 | 0.00 | 0.25 | 0.00 | 89 | 1010.6 |
| 20260506091501 | 16 | 208 | 3.2 | 4.8 | 0.00 | 0.25 | 0.00 | 89 | 1010.7 |
| 20260506090958 | 16 | 253 | 4.8 | 4.8 | 0.00 | 0.25 | 0.00 | 89 | 1010.8 |
| 20260506090459 | 16 | 204 | 6.4 | 8.0 | 0.00 | 0.25 | 0.00 | 89 | 1010.8 |
| 20260506090000 | 16 | 214 | 4.8 | 4.8 | 0.00 | 0.25 | 0.00 | 89 | 1010.8 |
| 20260506085457 | 16 | 208 | 6.4 | 3.2 | 0.00 | 0.25 | 0.00 | 88 | 1010.9 |
| 20260506085019 | 16 | 194 | 4.8 | 6.4 | 0.00 | 0.25 | 0.00 | 87 | 1010.9 |
| 20260506085013 | 16 | 309 | 4.8 | 3.2 | 0.00 | 0.25 | 0.00 | 87 | 1010.9 |
| 20260506084958 | 16 | 301 | 4.8 | 1.6 | 0.00 | 0.25 | 0.00 | 88 | 1010.9 |
| 20260506084459 | 16 | 255 | 4.8 | 8.0 | 0.00 | 0.25 | 0.00 | 88 | 1010.8 |
| 20260506083956 | 16 | 215 | 4.8 | 6.4 | 0.00 | 0.25 | 0.00 | 88 | 1010.9 |
| 20260506083457 | 16 | 233 | 3.2 | 8.0 | 0.00 | 0.25 | 0.00 | 87 | 1010.9 |
| 20260506082957 | 16 | 276 | 6.4 | 4.8 | 0.00 | 0.25 | 0.00 | 87 | 1010.9 |
| 20260506082454 | 16 | 194 | 4.8 | 6.4 | 0.00 | 0.25 | 0.00 | 87 | 1010.9 |
| 20260506081955 | 16 | 309 | 4.8 | 3.2 | 0.00 | 0.25 | 0.00 | 87 | 1010.9 |
| 20260506081823 | 17 | 203 | 4.8 | 1.6 | 0.00 | 0.25 | 0.00 | 86 | 1011.0 |
| 20260506081813 | 17 | 287 | 4.8 | 4.8 | 0.00 | 0.25 | 0.00 | 86 | 1011.0 |
| 20260506081456 | 16 | 181 | 8.0 | 0.0 | 0.00 | 0.25 | 0.00 | 87 | 1010.9 |
| 20260506080953 | 17 | 218 | 6.4 | 6.4 | 0.00 | 0.25 | 0.00 | 87 | 1011.0 |
| 20260506080454 | 17 | 193 | 8.0 | 6.4 | 0.00 | 0.25 | 0.00 | 86 | 1011.0 |
| 20260506080120 | 17 | 203 | 4.8 | 1.6 | 0.00 | 0.25 | 0.00 | 86 | 1011.0 |
| 20260506073452 | 17 | 205 | 4.8 | 6.4 | 0.00 | 0.25 | 0.00 | 85 | 1011.2 |
| 20260506072953 | 17 | 252 | 4.8 | 8.0 | 0.00 | 0.25 | 0.00 | 85 | 1011.2 |
| 20260506072450 | 17 | 170 | 4.8 | 6.4 | 0.00 | 0.25 | 0.00 | 85 | 1011.2 |
| 20260506071951 | 17 | 263 | 6.4 | 4.8 | 0.00 | 0.25 | 0.00 | 85 | 1011.3 |
| 20260506071452 | 17 | 226 | 6.4 | 1.6 | 0.00 | 0.25 | 0.00 | 85 | 1011.3 |
| 20260506070949 | 17 | 287 | 6.4 | 4.8 | 0.00 | 0.25 | 0.00 | 84 | 1011.3 |
| 20260506070450 | 17 | 236 | 4.8 | 6.4 | 0.00 | 0.25 | 0.00 | 84 | 1011.3 |
| 20260506062446 | 17 | 200 | 6.4 | 8.0 | 0.00 | 0.25 | 0.00 | 83 | 1011.2 |
| 20260506061947 | 17 | 204 | 6.4 | 1.6 | 0.00 | 0.25 | 0.00 | 83 | 1011.1 |
| 20260506061448 | 17 | 229 | 8.0 | 6.4 | 0.00 | 0.25 | 0.00 | 82 | 1011.2 |
| 20260506061021 | 17 | 188 | 4.8 | 12.9 | 0.00 | 0.25 | 0.00 | 82 | 1011.5 |
| 20260506061006 | 17 | 270 | 4.8 | 6.4 | 0.05 | 0.25 | 0.00 | 81 | 1011.5 |
| 20260506060946 | 17 | 278 | 4.8 | 6.4 | 0.00 | 0.25 | 0.00 | 82 | 1011.2 |
| 20260506060447 | 17 | 203 | 6.4 | 4.8 | 0.00 | 0.25 | 0.00 | 82 | 1011.2 |
| 20260506050941 | 18 | 186 | 4.8 | 11.3 | 0.05 | 0.25 | 0.00 | 79 | 1011.8 |
| 20260506050725 | 18 | 184 | 6.4 | 3.2 | 0.05 | 0.25 | 0.00 | 79 | 1011.8 |
| 20260506050621 | 18 | 218 | 4.8 | 6.4 | 0.05 | 0.25 | 0.00 | 78 | 1011.9 |
| 20260506050614 | 18 | 246 | 3.2 | 4.8 | 0.18 | 0.18 | 0.25 | 78 | 1011.8 |
| 20260506050442 | 18 | 184 | 6.4 | 3.2 | 0.05 | 0.25 | 0.00 | 79 | 1011.8 |
| 20260506045047 | 18 | 218 | 4.8 | 6.4 | 0.05 | 0.25 | 0.00 | 78 | 1011.9 |
| 20260506044941 | 18 | 218 | 4.8 | 6.4 | 0.05 | 0.25 | 0.00 | 78 | 1011.9 |
| 20260506044442 | 18 | 246 | 3.2 | 4.8 | 0.18 | 0.18 | 0.25 | 78 | 1011.8 |
| 20260506043940 | 18 | 208 | 3.2 | 6.4 | 0.18 | 0.18 | 0.25 | 77 | 1011.9 |
| 20260506043441 | 18 | 300 | 1.6 | 4.8 | 0.18 | 0.18 | 0.25 | 77 | 1011.9 |
| 20260506043420 | 18 | 238 | 4.8 | 6.4 | 0.18 | 0.18 | 0.25 | 75 | 1011.8 |
| 20260506043409 | 18 | 193 | 4.8 | 4.8 | 0.18 | 0.18 | 0.25 | 75 | 1011.8 |
| 20260506043404 | 18 | 188 | 4.8 | 6.4 | 0.18 | 0.18 | 0.25 | 75 | 1011.8 |
| 20260506043032 | 18 | 177 | 8.0 | 9.7 | 0.18 | 0.18 | 0.25 | 77 | 1011.8 |
| 20260506042942 | 18 | 177 | 8.0 | 9.7 | 0.18 | 0.18 | 0.25 | 77 | 1011.8 |
| 20260506042439 | 18 | 214 | 8.0 | 6.4 | 0.18 | 0.18 | 0.25 | 76 | 1011.8 |
| 20260506042012 | 18 | 208 | 3.2 | 1.6 | 0.18 | 0.18 | 0.25 | 76 | 1011.8 |
| 20260506041939 | 18 | 208 | 3.2 | 1.6 | 0.18 | 0.18 | 0.25 | 76 | 1011.8 |
| 20260506041440 | 18 | 238 | 4.8 | 6.4 | 0.18 | 0.18 | 0.25 | 75 | 1011.8 |
| 20260506040937 | 18 | 193 | 4.8 | 4.8 | 0.18 | 0.18 | 0.25 | 75 | 1011.8 |
| 20260506040438 | 18 | 188 | 4.8 | 6.4 | 0.18 | 0.18 | 0.25 | 75 | 1011.8 |
| 20260506040213 | 19 | 188 | 6.4 | 6.4 | 0.00 | 0.18 | 0.03 | 73 | 1011.9 |
| 20260506035939 | 18 | 211 | 4.8 | 8.0 | 0.18 | 0.18 | 0.25 | 74 | 1011.8 |
| 20260506035436 | 18 | 208 | 9.7 | 6.4 | 0.18 | 0.18 | 0.25 | 74 | 1011.8 |
| 20260506034937 | 18 | 153 | 4.8 | 4.8 | 0.18 | 0.18 | 0.20 | 74 | 1011.8 |
| 20260506034438 | 18 | 240 | 3.2 | 3.2 | 0.00 | 0.18 | 0.03 | 74 | 1011.9 |
| 20260506033935 | 19 | 188 | 6.4 | 6.4 | 0.00 | 0.18 | 0.03 | 73 | 1011.9 |
| 20260506033601 | 19 | 218 | 6.4 | 8.0 | 0.00 | 0.18 | 0.03 | 73 | 1011.9 |
| 20260506033435 | 19 | 218 | 6.4 | 8.0 | 0.00 | 0.18 | 0.03 | 73 | 1011.9 |
| 20260506033014 | 19 | 228 | 8.0 | 4.8 | 0.00 | 0.18 | 0.03 | 72 | 1011.9 |
| 20260506033009 | 19 | 256 | 8.0 | 8.0 | 0.00 | 0.18 | 0.03 | 72 | 1011.9 |
| 20260506033002 | 19 | 271 | 6.4 | 8.0 | 0.00 | 0.18 | 0.03 | 72 | 1011.9 |
| 20260506032935 | 19 | 176 | 4.8 | 3.2 | 0.00 | 0.18 | 0.03 | 73 | 1011.9 |
| 20260506032432 | 19 | 186 | 9.7 | 11.3 | 0.00 | 0.18 | 0.03 | 73 | 1011.7 |
| 20260506031933 | 19 | 218 | 8.0 | 8.0 | 0.00 | 0.18 | 0.03 | 73 | 1011.8 |
| 20260506031540 | 19 | 239 | 6.4 | 3.2 | 0.00 | 0.18 | 0.03 | 72 | 1011.9 |
| 20260506031434 | 19 | 239 | 6.4 | 3.2 | 0.00 | 0.18 | 0.03 | 72 | 1011.9 |
| 20260506031234 | 19 | 228 | 8.0 | 4.8 | 0.00 | 0.18 | 0.03 | 72 | 1011.9 |
| 20260506030931 | 19 | 228 | 8.0 | 4.8 | 0.00 | 0.18 | 0.03 | 72 | 1011.9 |
| 20260506030432 | 19 | 256 | 8.0 | 8.0 | 0.00 | 0.18 | 0.03 | 72 | 1011.9 |
| 20260506025933 | 19 | 271 | 6.4 | 8.0 | 0.00 | 0.18 | 0.03 | 72 | 1011.9 |
| 20260506025819 | 20 | 229 | 6.4 | 17.7 | 0.00 | 0.18 | 0.03 | 71 | 1012.0 |
| 20260506025812 | 20 | 255 | 4.8 | 3.2 | 0.00 | 0.18 | 0.03 | 71 | 1012.1 |
| 20260506025806 | 20 | 266 | 4.8 | 4.8 | 0.00 | 0.18 | 0.03 | 70 | 1012.1 |
| 20260506024932 | 20 | 285 | 9.7 | 9.7 | 0.00 | 0.18 | 0.03 | 71 | 1011.9 |
| 20260506024433 | 20 | 239 | 6.4 | 14.5 | 0.00 | 0.18 | 0.03 | 71 | 1012.0 |
| 20260506024129 | 20 | 229 | 6.4 | 17.7 | 0.00 | 0.18 | 0.03 | 71 | 1012.0 |
| 20260506023930 | 20 | 229 | 6.4 | 17.7 | 0.00 | 0.18 | 0.03 | 71 | 1012.0 |
| 20260506023431 | 20 | 255 | 4.8 | 3.2 | 0.00 | 0.18 | 0.03 | 71 | 1012.1 |
| 20260506023220 | 20 | 266 | 4.8 | 4.8 | 0.00 | 0.18 | 0.03 | 70 | 1012.1 |
| 20260506022931 | 20 | 266 | 4.8 | 4.8 | 0.00 | 0.18 | 0.03 | 70 | 1012.1 |
| 20260506022614 | 20 | 207 | 8.0 | 8.0 | 0.00 | 0.18 | 0.03 | 69 | 1012.1 |
| 20260506022606 | 20 | 252 | 9.7 | 12.9 | 0.00 | 0.18 | 0.03 | 69 | 1012.1 |
| 20260506022559 | 20 | 200 | 9.7 | 8.0 | 0.00 | 0.18 | 0.03 | 69 | 1012.1 |
| 20260506022428 | 20 | 226 | 11.3 | 9.7 | 0.00 | 0.18 | 0.03 | 70 | 1012.1 |
| 20260506021929 | 20 | 156 | 9.7 | 6.4 | 0.00 | 0.18 | 0.03 | 70 | 1012.1 |
| 20260506021430 | 20 | 207 | 6.4 | 8.0 | 0.00 | 0.18 | 0.03 | 70 | 1012.2 |
| 20260506020925 | 20 | 204 | 6.4 | 4.8 | 0.00 | 0.18 | 0.03 | 70 | 1012.2 |
| 20260506020426 | 20 | 207 | 8.0 | 8.0 | 0.00 | 0.18 | 0.03 | 69 | 1012.1 |
| 20260506015927 | 20 | 252 | 9.7 | 12.9 | 0.00 | 0.18 | 0.03 | 69 | 1012.1 |
| 20260506015424 | 20 | 200 | 9.7 | 8.0 | 0.00 | 0.18 | 0.03 | 69 | 1012.1 |
| 20260506015409 | 20 | 211 | 4.8 | 6.4 | 0.00 | 0.18 | 0.03 | 67 | 1012.0 |
| 20260506015400 | 20 | 229 | 9.7 | 8.0 | 0.00 | 0.18 | 0.03 | 67 | 1012.0 |
| 20260506014912 | 20 | 228 | 8.0 | 12.9 | 0.00 | 0.18 | 0.03 | 69 | 1012.0 |
| 20260506014413 | 20 | 246 | 8.0 | 6.4 | 0.00 | 0.18 | 0.03 | 68 | 1012.0 |
| 20260506013909 | 20 | 297 | 4.8 | 17.7 | 0.00 | 0.18 | 0.03 | 68 | 1012.0 |
| 20260506013410 | 20 | 222 | 6.4 | 9.7 | 0.00 | 0.18 | 0.03 | 68 | 1012.0 |
| 20260506012911 | 20 | 211 | 4.8 | 6.4 | 0.00 | 0.18 | 0.03 | 67 | 1012.0 |
| 20260506012810 | 20 | 229 | 9.7 | 8.0 | 0.00 | 0.18 | 0.03 | 67 | 1012.0 |
| 20260506012408 | 20 | 229 | 9.7 | 8.0 | 0.00 | 0.18 | 0.03 | 67 | 1012.0 |
| 20260506012215 | 20 | 260 | 9.7 | 12.9 | 0.00 | 0.18 | 0.03 | 64 | 1011.6 |
| 20260506012204 | 21 | 255 | 4.8 | 0.0 | 0.00 | 0.18 | 0.03 | 64 | 1011.6 |
| 20260506011909 | 20 | 218 | 9.7 | 3.2 | 0.00 | 0.18 | 0.03 | 67 | 1011.9 |
| 20260506011410 | 20 | 191 | 9.7 | 6.4 | 0.00 | 0.18 | 0.03 | 66 | 1011.9 |
| 20260506010406 | 20 | 188 | 11.3 | 11.3 | 0.00 | 0.18 | 0.03 | 65 | 1011.6 |
| 20260506005907 | 20 | 260 | 9.7 | 12.9 | 0.00 | 0.18 | 0.03 | 64 | 1011.6 |
| 20260506005404 | 21 | 255 | 4.8 | 0.0 | 0.00 | 0.18 | 0.03 | 64 | 1011.6 |
| 20260506005010 | 21 | 193 | 8.0 | 12.9 | 0.00 | 0.18 | 0.03 | 63 | 1011.4 |
| 20260506005000 | 21 | 195 | 12.9 | 9.7 | 0.00 | 0.18 | 0.03 | 62 | 1011.4 |
| 20260506004905 | 21 | 221 | 8.0 | 1.6 | 0.00 | 0.18 | 0.03 | 63 | 1011.6 |
| 20260506004406 | 21 | 225 | 11.3 | 16.1 | 0.00 | 0.18 | 0.03 | 63 | 1011.4 |
| 20260506003902 | 21 | 193 | 8.0 | 12.9 | 0.00 | 0.18 | 0.03 | 63 | 1011.4 |
| 20260506003403 | 21 | 195 | 12.9 | 9.7 | 0.00 | 0.18 | 0.03 | 62 | 1011.4 |
| 20260506003217 | 21 | 321 | 9.7 | 8.0 | 0.00 | 0.18 | 0.03 | 62 | 1011.3 |
| 20260506003207 | 21 | 190 | 8.0 | 9.7 | 0.00 | 0.18 | 0.03 | 62 | 1011.4 |
| 20260506002904 | 21 | 195 | 4.8 | 11.3 | 0.00 | 0.18 | 0.03 | 62 | 1011.4 |
| 20260506002519 | 21 | 321 | 9.7 | 8.0 | 0.00 | 0.18 | 0.03 | 62 | 1011.3 |
| 20260506002401 | 21 | 321 | 9.7 | 8.0 | 0.00 | 0.18 | 0.03 | 62 | 1011.3 |
| 20260506001901 | 21 | 190 | 8.0 | 9.7 | 0.00 | 0.18 | 0.03 | 62 | 1011.4 |
| 20260506001758 | 21 | 255 | 4.8 | 8.0 | 0.00 | 0.18 | 0.03 | 60 | 1011.2 |
| 20260506001402 | 21 | 226 | 8.0 | 3.2 | 0.00 | 0.18 | 0.03 | 61 | 1011.3 |
| 20260506000857 | 21 | 200 | 6.4 | 9.7 | 0.00 | 0.18 | 0.03 | 61 | 1011.3 |
| 20260506000358 | 21 | 200 | 4.8 | 8.0 | 0.00 | 0.18 | 0.03 | 61 | 1011.3 |
| 20260505235857 | 21 | 243 | 8.0 | 6.4 | 0.00 | 0.18 | 0.03 | 60 | 1011.3 |
| 20260505235353 | 21 | 255 | 8.0 | 3.2 | 0.00 | 0.18 | 0.03 | 60 | 1011.2 |
| 20260505234854 | 21 | 255 | 4.8 | 8.0 | 0.00 | 0.18 | 0.03 | 60 | 1011.2 |
| 20260505234613 | 22 | 183 | 6.4 | 4.8 | 0.00 | 0.18 | 0.03 | 57 | 1010.8 |
| 20260505234604 | 22 | 239 | 4.8 | 11.3 | 0.00 | 0.18 | 0.03 | 57 | 1010.7 |
| 20260505234355 | 21 | 238 | 6.4 | 16.1 | 0.00 | 0.18 | 0.03 | 59 | 1011.1 |
| 20260505233852 | 22 | 240 | 3.2 | 3.2 | 0.00 | 0.18 | 0.03 | 59 | 1011.1 |
| 20260505233424 | 22 | 293 | 4.8 | 9.7 | 0.00 | 0.18 | 0.03 | 58 | 1011.1 |
| 20260505233353 | 22 | 293 | 4.8 | 9.7 | 0.00 | 0.18 | 0.03 | 58 | 1011.1 |
| 20260505232956 | 22 | 253 | 4.8 | 4.8 | 0.00 | 0.18 | 0.03 | 58 | 1010.9 |
| 20260505232853 | 22 | 253 | 4.8 | 4.8 | 0.00 | 0.18 | 0.03 | 58 | 1010.9 |
| 20260505232350 | 22 | 183 | 6.4 | 4.8 | 0.00 | 0.18 | 0.03 | 57 | 1010.8 |
| 20260505231851 | 22 | 239 | 4.8 | 11.3 | 0.00 | 0.18 | 0.03 | 57 | 1010.7 |
| 20260505231754 | 22 | 197 | 8.0 | 11.3 | 0.00 | 0.18 | 0.03 | 57 | 1010.7 |
| 20260505231352 | 22 | 197 | 8.0 | 11.3 | 0.00 | 0.18 | 0.03 | 57 | 1010.7 |
| 20260505230940 | 22 | 228 | 6.4 | 3.2 | 0.00 | 0.18 | 0.03 | 56 | 1010.8 |
| 20260505230848 | 22 | 228 | 6.4 | 3.2 | 0.00 | 0.18 | 0.03 | 56 | 1010.8 |
| 20260505230349 | 23 | 203 | 9.7 | 12.9 | 0.00 | 0.18 | 0.03 | 56 | 1010.7 |
| 20260505225944 | 23 | 186 | 6.4 | 16.1 | 0.00 | 0.18 | 0.03 | 56 | 1010.6 |
| 20260505225850 | 23 | 186 | 6.4 | 16.1 | 0.00 | 0.18 | 0.03 | 56 | 1010.6 |
| 20260505225348 | 23 | 221 | 6.4 | 6.4 | 0.00 | 0.18 | 0.03 | 55 | 1010.6 |
| 20260505224848 | 23 | 242 | 3.2 | 12.9 | 0.00 | 0.18 | 0.03 | 55 | 1010.6 |
| 20260505224349 | 23 | 284 | 8.0 | 8.0 | 0.00 | 0.18 | 0.03 | 54 | 1010.4 |
| 20260505223846 | 23 | 229 | 8.0 | 4.8 | 0.00 | 0.18 | 0.03 | 54 | 1010.5 |
| 20260505223824 | 25 | 226 | 9.7 | 6.4 | 0.00 | 0.18 | 0.03 | 51 | 1010.3 |
| 20260505223346 | 23 | 218 | 12.9 | 16.1 | 0.00 | 0.18 | 0.03 | 53 | 1010.5 |
| 20260505222949 | 24 | 208 | 8.0 | 1.6 | 0.00 | 0.18 | 0.03 | 52 | 1010.4 |
| 20260505222847 | 24 | 208 | 8.0 | 1.6 | 0.00 | 0.18 | 0.03 | 52 | 1010.4 |
| 20260505222344 | 24 | 188 | 4.8 | 3.2 | 0.00 | 0.18 | 0.03 | 52 | 1010.4 |
| 20260505221844 | 25 | 226 | 9.7 | 6.4 | 0.00 | 0.18 | 0.03 | 51 | 1010.3 |
| 20260505221345 | 25 | 274 | 0.0 | 11.3 | 0.00 | 0.18 | 0.03 | 51 | 1010.2 |
| 20260505221008 | 25 | 204 | 4.8 | 3.2 | 0.00 | 0.18 | 0.03 | 48 | 1009.9 |
| 20260505221000 | 26 | 203 | 4.8 | 9.7 | 0.00 | 0.18 | 0.03 | 48 | 1009.9 |
| 20260505220954 | 26 | 217 | 4.8 | 8.0 | 0.00 | 0.18 | 0.03 | 48 | 1009.9 |
| 20260505220841 | 25 | 188 | 8.0 | 4.8 | 0.00 | 0.18 | 0.03 | 50 | 1010.2 |
| 20260505220342 | 25 | 215 | 3.2 | 9.7 | 0.00 | 0.18 | 0.03 | 49 | 1010.1 |
| 20260505215843 | 25 | 86 | 8.0 | 6.4 | 0.00 | 0.18 | 0.03 | 49 | 1010.1 |
| 20260505215339 | 25 | 211 | 4.8 | 14.5 | 0.00 | 0.18 | 0.03 | 49 | 1010.1 |
| 20260505214840 | 25 | 204 | 4.8 | 3.2 | 0.00 | 0.18 | 0.03 | 48 | 1009.9 |
| 20260505214341 | 26 | 203 | 4.8 | 9.7 | 0.00 | 0.18 | 0.03 | 48 | 1009.9 |
| 20260505213837 | 26 | 217 | 4.8 | 8.0 | 0.00 | 0.18 | 0.03 | 48 | 1009.9 |
| 20260505213811 | 26 | 240 | 11.3 | 11.3 | 0.00 | 0.18 | 0.03 | 48 | 1009.7 |
| 20260505213802 | 26 | 263 | 8.0 | 9.7 | 0.00 | 0.18 | 0.03 | 47 | 1009.7 |
| 20260505213754 | 26 | 287 | 9.7 | 1.6 | 0.00 | 0.18 | 0.03 | 47 | 1009.6 |
| 20260505213338 | 26 | 249 | 8.0 | 4.8 | 0.00 | 0.18 | 0.03 | 48 | 1009.8 |
| 20260505212839 | 26 | 195 | 8.0 | 16.1 | 0.00 | 0.18 | 0.03 | 48 | 1009.7 |
| 20260505212335 | 26 | 238 | 3.2 | 3.2 | 0.00 | 0.18 | 0.03 | 48 | 1009.7 |
| 20260505211836 | 26 | 240 | 11.3 | 11.3 | 0.00 | 0.18 | 0.03 | 48 | 1009.7 |
| 20260505211336 | 26 | 263 | 8.0 | 9.7 | 0.00 | 0.18 | 0.03 | 47 | 1009.7 |
| 20260505210833 | 26 | 287 | 9.7 | 1.6 | 0.00 | 0.18 | 0.03 | 47 | 1009.6 |
| 20260505210333 | 26 | 219 | 9.7 | 6.4 | 0.00 | 0.18 | 0.03 | 47 | 1009.6 |
| 20260505205834 | 26 | 219 | 6.4 | 8.0 | 0.00 | 0.18 | 0.03 | 48 | 1009.5 |
| 20260505205330 | 26 | 166 | 4.8 | 9.7 | 0.00 | 0.18 | 0.03 | 48 | 1009.4 |
| 20260505204831 | 27 | 243 | 6.4 | 12.9 | 0.00 | 0.18 | 0.03 | 48 | 1009.4 |
| 20260505204331 | 27 | 177 | 4.8 | 11.3 | 0.00 | 0.18 | 0.03 | 48 | 1009.5 |
| 20260505203828 | 27 | 218 | 6.4 | 6.4 | 0.00 | 0.18 | 0.03 | 48 | 1009.5 |
| 20260505203426 | 27 | 238 | 3.2 | 6.4 | 0.00 | 0.18 | 0.03 | 49 | 1009.5 |
| 20260505203328 | 27 | 238 | 3.2 | 6.4 | 0.00 | 0.18 | 0.03 | 49 | 1009.5 |
| 20260505203143 | 27 | 188 | 3.2 | 0.0 | 0.00 | 0.18 | 0.03 | 51 | 1009.7 |
| 20260505202829 | 27 | 169 | 3.2 | 12.9 | 0.00 | 0.18 | 0.03 | 50 | 1009.5 |
| 20260505202325 | 27 | 145 | 3.2 | 0.0 | 0.00 | 0.18 | 0.03 | 50 | 1009.5 |
| 20260505201826 | 27 | 242 | 1.6 | 6.4 | 0.00 | 0.18 | 0.03 | 50 | 1009.5 |
| 20260505200823 | 27 | 200 | 3.2 | 9.7 | 0.00 | 0.18 | 0.03 | 51 | 1009.6 |
| 20260505200324 | 27 | 188 | 3.2 | 0.0 | 0.00 | 0.18 | 0.03 | 51 | 1009.7 |
| 20260505200206 | 27 | 163 | 4.8 | 1.6 | 0.00 | 0.18 | 0.03 | 50 | 1009.7 |
| 20260505195824 | 27 | 132 | 3.2 | 3.2 | 0.00 | 0.18 | 0.03 | 50 | 1009.7 |
| 20260505194821 | 27 | 221 | 3.2 | 6.4 | 0.00 | 0.18 | 0.03 | 51 | 1009.7 |
| 20260505194359 | 27 | 170 | 4.8 | 4.8 | 0.00 | 0.18 | 0.03 | 50 | 1009.7 |
| 20260505194322 | 27 | 170 | 4.8 | 4.8 | 0.00 | 0.18 | 0.03 | 50 | 1009.7 |
| 20260505193818 | 27 | 163 | 4.8 | 1.6 | 0.00 | 0.18 | 0.03 | 50 | 1009.7 |
| 20260505193319 | 27 | 190 | 1.6 | 3.2 | 0.00 | 0.18 | 0.03 | 50 | 1009.8 |
| 20260505193007 | 28 | 243 | 3.2 | 3.2 | 0.00 | 0.18 | 0.03 | 50 | 1009.9 |
| 20260505192819 | 27 | 238 | 3.2 | 6.4 | 0.00 | 0.18 | 0.03 | 51 | 1009.8 |
| 20260505192316 | 27 | 245 | 3.2 | 0.0 | 0.00 | 0.18 | 0.03 | 50 | 1009.9 |
| 20260505191816 | 28 | 169 | 1.6 | 8.0 | 0.00 | 0.18 | 0.03 | 50 | 1009.9 |
| 20260505191316 | 28 | 152 | 4.8 | 0.0 | 0.00 | 0.18 | 0.03 | 50 | 1009.9 |
| 20260505191010 | 28 | 243 | 3.2 | 3.2 | 0.00 | 0.18 | 0.03 | 50 | 1009.9 |
| 20260505190812 | 28 | 243 | 3.2 | 3.2 | 0.00 | 0.18 | 0.03 | 50 | 1009.9 |
| 20260505190313 | 28 | 194 | 6.4 | 6.4 | 0.00 | 0.18 | 0.03 | 49 | 1010.1 |
| 20260505185814 | 27 | 174 | 1.6 | 6.4 | 0.00 | 0.18 | 0.03 | 51 | 1010.1 |
| 20260505185246 | 27 | 179 | 0.0 | 3.2 | 0.00 | 0.18 | 0.03 | 51 | 1010.2 |
| 20260505184747 | 27 | 205 | 4.8 | 4.8 | 0.00 | 0.18 | 0.03 | 50 | 1010.2 |
| 20260505184247 | 28 | 219 | 3.2 | 4.8 | 0.00 | 0.18 | 0.03 | 50 | 1010.2 |
| 20260505183744 | 28 | 132 | 4.8 | 3.2 | 0.00 | 0.18 | 0.03 | 50 | 1010.3 |
| 20260505183243 | 28 | 239 | 3.2 | 4.8 | 0.00 | 0.18 | 0.03 | 50 | 1010.3 |